星链-1894 (STARLINK-1894 )

导读 | 星芒AI

STARLINK-1894 是 SpaceX Starlink 计划中的一颗低轨通信卫星,属于第 19 批部署的星链卫星群。该卫星于 2021 年 10 月发射,运行在约 550 公里的轨道高度,旨在为全球用户提供高速互联网服务。作为星链网络的一部分,STARLINK-1894 采用先进通信技术,支持低延迟、高带宽的连接,助力偏远地区接入互联网。该卫星遵循 SpaceX 的可持续发展承诺,具备自动避撞和可受控离轨能力。

基本信息
目录编号:
46744
目录名称:
STARLINK-1894
国际标识:
2020-074F
轨道中心:
EARTH
卫星名称:
星链-1894
卫星全名:
星链-1894 (STARLINK-1894 )
卫星状态:
在轨 (已飞行1831 天)
发射日期:
2020-10-24 UTC
国别 :
美国 (US)
星等 :
--
轨道信息
数据来源 国际轨道数据
星历时间: 2025-10-29T20:00:03+0800
6小时前
查看轨道信息
半长轴: 6884.359km
偏心率: 0.0001516
轨道倾角: 53.055°
近地点辐角 82.595°
升交点赤经 190.414°
平近点角 285.805°
近地点: 505.18km
远地点: 507.268km
周期: 94.745分钟
每日圈数: 15.198737
详细信息
固有亮度:
5
最大亮度:
2.5
卫星平台:
Starlink V1.0
覆盖范围:
全球
运营商:
太空探索技术公司
运营商所在国:
美国
制造商(研发单位):
太空探索技术公司
制造商所在国:
美国
使用方式:
暂无
卫星简介
星链(Starlink)计划是由太空探索技术公司(SpaceX)提出的一个巨型低轨卫星互联网星座项目,计划在2019年至2024年间在太空搭建由约1.2万颗卫星组成的“星链”网络,其中1584颗将部署在地球上空550千米处的近地轨道,并从2020年开始工作。该卫星仍在工作。
2D轨道图
3D轨道图
轨道高度分析图
轨道倾角分析图
轨道综合分析图
查看轨道综合分析图